TimeEDT,TemperatureF,Dew PointF,Humidity,Sea Level PressureIn,VisibilityMPH,Wind Direction,Wind SpeedMPH,Gust SpeedMPH,PrecipitationIn,Events,Conditions,WindDirDegrees,DateUTC
12:53 AM,72.0,66.0,81,30.21,10.0,Calm,Calm,-,0.00,Rain,Light Rain,0,2012-10-04 04:53:00
1:53 AM,71.1,68.0,90,30.19,10.0,Calm,Calm,-,0.00,,Clear,0,2012-10-04 05:53:00
2:53 AM,71.1,68.0,90,30.21,10.0,Calm,Calm,-,0.01,,Mostly Cloudy,0,2012-10-04 06:53:00
3:04 AM,69.8,68.0,94,30.21,10.0,Calm,Calm,-,N/A,,Mostly Cloudy,0,2012-10-04 07:04:00
3:15 AM,71.6,68.0,88,30.21,10.0,Calm,Calm,-,0.00,Rain,Light Rain,0,2012-10-04 07:15:00
3:53 AM,70.0,66.9,90,30.21,7.0,WNW,3.5,-,0.02,Rain,Light Rain,290,2012-10-04 07:53:00
4:53 AM,70.0,68.0,93,30.20,8.0,Calm,Calm,-,0.01,Rain,Light Rain,0,2012-10-04 08:53:00
5:53 AM,69.1,66.9,93,30.23,7.0,West,3.5,-,0.03,Rain,Light Rain,270,2012-10-04 09:53:00
6:53 AM,69.1,66.9,93,30.22,6.0,Calm,Calm,-,0.02,Rain,Light Rain,0,2012-10-04 10:53:00
7:50 AM,69.8,66.2,88,30.24,5.0,Calm,Calm,-,0.00,,Scattered Clouds,0,2012-10-04 11:50:00
7:53 AM,69.1,68.0,96,30.24,5.0,Calm,Calm,-,0.00,,Scattered Clouds,0,2012-10-04 11:53:00
8:03 AM,69.8,68.0,94,30.25,5.0,Calm,Calm,-,N/A,,Mostly Cloudy,0,2012-10-04 12:03:00
8:53 AM,70.0,68.0,93,30.25,8.0,Calm,Calm,-,N/A,,Overcast,0,2012-10-04 12:53:00
9:08 AM,69.8,68.0,94,30.26,9.0,Calm,Calm,-,N/A,,Overcast,0,2012-10-04 13:08:00
9:53 AM,71.1,68.0,90,30.26,8.0,Calm,Calm,-,N/A,,Overcast,0,2012-10-04 13:53:00
10:34 AM,71.6,66.2,83,30.28,10.0,Calm,Calm,-,N/A,,Overcast,0,2012-10-04 14:34:00
10:41 AM,71.6,66.2,83,30.28,10.0,Calm,Calm,-,N/A,,Overcast,0,2012-10-04 14:41:00
10:53 AM,71.1,66.9,87,30.27,10.0,West,3.5,-,N/A,,Overcast,280,2012-10-04 14:53:00
11:03 AM,69.8,66.2,88,30.28,3.0,Calm,Calm,-,0.01,Rain,Light Rain,0,2012-10-04 15:03:00
11:25 AM,71.6,68.0,88,30.27,6.0,Calm,Calm,-,0.02,Rain,Light Rain,0,2012-10-04 15:25:00
11:41 AM,69.8,66.2,88,30.27,1.5,Calm,Calm,-,0.06,Rain,Light Rain,0,2012-10-04 15:41:00
11:46 AM,69.8,68.0,94,30.28,0.8,Calm,Calm,-,0.08,Rain,Heavy Rain,0,2012-10-04 15:46:00
11:53 AM,70.0,68.0,93,30.27,1.2,West,4.6,-,0.10,Rain,Rain,280,2012-10-04 15:53:00
12:01 PM,69.8,68.0,94,30.28,1.0,Calm,Calm,-,0.04,Rain,Rain,0,2012-10-04 16:01:00
12:14 PM,69.8,68.0,94,30.28,2.0,WSW,5.8,-,0.07,Rain,Light Rain,240,2012-10-04 16:14:00
12:18 PM,69.8,68.0,94,30.27,1.8,WSW,3.5,-,0.08,Rain,Rain,250,2012-10-04 16:18:00
12:24 PM,69.8,68.0,94,30.27,1.5,SW,3.5,-,0.09,Rain,Light Rain,230,2012-10-04 16:24:00
12:32 PM,69.8,68.0,94,30.27,3.0,SSW,3.5,-,0.09,Rain,Light Rain,210,2012-10-04 16:32:00
12:40 PM,69.8,68.0,94,30.26,7.0,SW,3.5,-,0.09,,Overcast,230,2012-10-04 16:40:00
12:46 PM,71.6,69.8,94,30.26,8.0,WSW,4.6,-,0.09,,Overcast,240,2012-10-04 16:46:00
12:53 PM,71.1,69.1,93,30.26,9.0,Calm,Calm,-,0.09,,Overcast,0,2012-10-04 16:53:00
1:33 PM,73.4,69.8,88,30.24,10.0,Calm,Calm,-,N/A,,Overcast,0,2012-10-04 17:33:00
1:53 PM,73.9,66.9,79,30.23,10.0,Calm,Calm,-,N/A,,Mostly Cloudy,0,2012-10-04 17:53:00
2:09 PM,75.2,68.0,78,30.23,10.0,Variable,4.6,-,N/A,,Scattered Clouds,0,2012-10-04 18:09:00
2:19 PM,77.0,68.0,74,30.22,10.0,Variable,3.5,-,N/A,,Mostly Cloudy,0,2012-10-04 18:19:00
2:33 PM,77.0,68.0,74,30.22,10.0,Calm,Calm,-,N/A,,Overcast,0,2012-10-04 18:33:00
2:53 PM,77.0,66.9,71,30.21,10.0,Calm,Calm,-,N/A,,Mostly Cloudy,0,2012-10-04 18:53:00
3:35 PM,78.8,66.2,65,30.20,10.0,SSW,4.6,-,N/A,,Scattered Clouds,200,2012-10-04 19:35:00
3:53 PM,78.1,66.0,66,30.19,10.0,SSW,4.6,-,N/A,,Partly Cloudy,200,2012-10-04 19:53:00
4:53 PM,81.0,62.1,52,30.18,10.0,NNW,3.5,-,N/A,,Clear,330,2012-10-04 20:53:00
6:53 PM,75.0,68.0,79,30.17,10.0,Calm,Calm,-,N/A,,Clear,0,2012-10-04 22:53:00
7:53 PM,72.0,68.0,87,30.18,10.0,Calm,Calm,-,N/A,,Clear,0,2012-10-04 23:53:00
8:53 PM,70.0,68.0,93,30.18,7.0,Calm,Calm,-,N/A,,Clear,0,2012-10-05 00:53:00
9:53 PM,69.1,66.9,93,30.20,7.0,Calm,Calm,-,N/A,,Clear,0,2012-10-05 01:53:00
10:53 PM,69.1,66.0,90,30.22,7.0,Calm,Calm,-,N/A,,Clear,0,2012-10-05 02:53:00
11:53 PM,68.0,66.0,93,30.22,5.0,Calm,Calm,-,N/A,,Clear,0,2012-10-05 03:53:00